This is the latest recevied weather packets stored in our database for station/object K7TSD. If no packets are shown the sender has not sent any weather packets the latest 10 day(s).
| Time | Temp. | Humidity | Pressure | Rain* | Wind** | Luminosity | Snow |
|---|---|---|---|---|---|---|---|
| 1778428421 | 15° C | 53% | 1019.9 hPa | 0 mm | - | 608 W/m² | - |
| 1778428117 | 15° C | 55% | 1019.9 hPa | 0 mm | - | 602 W/m² | - |
| 1778427813 | 16.11° C | 55% | 1019.9 hPa | 0 mm | - | 573 W/m² | - |
| 1778427507 | 15.56° C | 51% | 1019.6 hPa | 0 mm | - | 517 W/m² | - |
| 1778427203 | 15.56° C | 53% | 1019.9 hPa | 0 mm | - | 458 W/m² | - |
| 1778426895 | 15.56° C | 53% | 1020 hPa | 0 mm | - | 412 W/m² | - |
| 1778426592 | 15° C | 59% | 1020 hPa | 0 mm | - | 434 W/m² | - |
| 1778426289 | 15° C | 56% | 1020 hPa | 0 mm | - | 429 W/m² | - |
| 1778425986 | 14.44° C | 58% | 1020 hPa | 0 mm | - | 402 W/m² | - |
| 1778425682 | 14.44° C | 58% | 1020.1 hPa | 0 mm | - | 377 W/m² | - |
| 1778425377 | 14.44° C | 56% | 1020 hPa | 0 mm | - | 370 W/m² | - |
| 1778425074 | 13.89° C | 57% | 1020.1 hPa | 0 mm | - | 330 W/m² | - |
| 1778424770 | 13.89° C | 58% | 1020 hPa | 0 mm | - | 301 W/m² | - |
| 1778424466 | 13.33° C | 60% | 1020.1 hPa | 0 mm | - | 284 W/m² | - |
| 1778424163 | 13.33° C | 61% | 1019.9 hPa | 0 mm | - | 289 W/m² | - |
| 1778423857 | 12.78° C | 61% | 1020.1 hPa | 0 mm | - | 247 W/m² | - |
| 1778423554 | 12.78° C | 61% | 1019.9 hPa | 0 mm | - | 233 W/m² | - |
| 1778423250 | 12.22° C | 63% | 1019.9 hPa | 0 mm | - | 223 W/m² | - |
| 1778422947 | 12.22° C | 62% | 1019.7 hPa | 0 mm | - | 207 W/m² | - |
| 1778422644 | 12.22° C | 66% | 1020.1 hPa | 0 mm | - | 169 W/m² | - |
| 1778422344 | 12.22° C | 63% | 1020 hPa | 0 mm | - | 178 W/m² | - |
| 1778422040 | 12.22° C | 65% | 1019.9 hPa | 0 mm | - | 190 W/m² | - |
| 1778421739 | 12.78° C | 66% | 1019.7 hPa | 0 mm | - | 175 W/m² | - |
| 1778421429 | 12.78° C | 66% | 1019.7 hPa | 0 mm | - | 202 W/m² | - |
| 1778421125 | 12.78° C | 61% | 1019.7 hPa | 0 mm | - | 205 W/m² | - |
* Rain latest hour (hover to see other rain measurements)
** Current wind speed in m/s (hover to see current wind gust speed)